Easton, MD

5:53 PM EST on November 15, 2019 (GMT -0500)
Easton / Newnam

Weather History for KESN - September, 2019

Change the Weather History Date:

Tuesday, September 17, 2019

  Actual Average Record
Temperature  
Mean Temperature 70 °F -  
Max Temperature 80 °F 82 °F 92 °F (1958)
Min Temperature 60 °F 61 °F 44 °F (1959)
Cooling Degree Days 6    
Growing Degree Days 20 (Base 50)    
Moisture  
Dew Point 63 °F    
Average Humidity 76    
Maximum Humidity 100    
Minimum Humidity 47    
Precipitation  
Precipitation 0.01 in - - ()
Sea Level Pressure  
Sea Level Pressure 30.09 in    
Wind  
Wind Speed 3 mph (NE)    
Max Wind Speed 15 mph    
Max Gust Speed 20 mph    
Visibility 10 miles    
Events Rain    
Averages and records for this station are not official NWS values.
T = Trace of Precipitation, MM = Missing Value Source: NWS Daily Summary

Daily Weather History Graph

Daily Weather History Graph

Search for Another Location

Airport or City:

Astronomy

Sep. 17, 2019 Rise Set
Actual Time 6:47 AM EDT 7:09 PM EDT
Civil Twilight 6:20 AM EDT 7:36 PM EDT
Nautical Twilight 5:49 AM EDT 8:07 PM EDT
Astronomical Twilight 5:17 AM EDT 8:39 PM EDT
Moon 9:13 PM EDT (9/17) 9:48 AM EDT (9/17)
Length of Visible Light 13h 15m
Length of Day
12h 22m
Waning Gibbous, 89% of the Moon is Illuminated
Sep 17
Waning Gibbous
Sep 21
Last Quarter
Sep 28
New
Oct 5
First Quarter
Oct 13
Full

Hourly Weather History & Observations

Time (EDT) Temp. Heat Index Dew Point Humidity Pressure Visibility Wind Dir Wind Speed Gust Speed Precip Events Conditions
12:19 AM 73.4 °F - 67.6 °F 82% 30.04 in 10.0 mi Calm Calm - N/A   Clear
12:39 AM 73.4 °F - 67.6 °F 82% 30.04 in 10.0 mi Calm Calm - N/A   Clear
12:59 AM 72.9 °F - 68.0 °F 85% 30.04 in 10.0 mi Calm Calm - N/A   Clear
1:19 AM 72.7 °F - 67.6 °F 84% 30.04 in 10.0 mi Calm Calm - N/A   Clear
1:39 AM 72.5 °F - 67.6 °F 85% 30.04 in 10.0 mi Calm Calm - N/A   Clear
1:59 AM 72.0 °F - 67.5 °F 86% 30.04 in 10.0 mi Calm Calm - N/A   Clear
2:19 AM 71.6 °F - 67.5 °F 87% 30.03 in 10.0 mi Calm Calm - N/A   Clear
2:39 AM 70.9 °F - 67.5 °F 89% 30.05 in 10.0 mi NNE 4.6 mph - N/A   Scattered Clouds
2:59 AM 71.1 °F - 67.6 °F 89% 30.05 in 10.0 mi NE 4.6 mph - N/A   Scattered Clouds
3:19 AM 71.1 °F - 67.6 °F 89% 30.04 in 10.0 mi ENE 4.6 mph - N/A   Mostly Cloudy
3:39 AM 71.1 °F - 67.6 °F 89% 30.04 in 10.0 mi NE 3.5 mph - N/A   Scattered Clouds
3:59 AM 71.2 °F - 67.6 °F 88% 30.04 in 10.0 mi North 5.8 mph - N/A   Scattered Clouds
4:19 AM 71.1 °F - 68.4 °F 91% 30.04 in 10.0 mi NE 5.8 mph - N/A Rain Light Rain
4:39 AM 70.7 °F - 68.4 °F 92% 30.05 in 10.0 mi NE 5.8 mph - N/A   Mostly Cloudy
4:59 AM 70.7 °F - 67.8 °F 91% 30.05 in 10.0 mi ENE 5.8 mph - N/A   Mostly Cloudy
5:19 AM 70.7 °F - 67.3 °F 89% 30.05 in 10.0 mi Calm Calm - N/A   Scattered Clouds
5:39 AM 70.2 °F - 67.3 °F 91% 30.05 in 10.0 mi ENE 6.9 mph - 0.01 in   Scattered Clouds
5:40 AM 70.2 °F - 67.3 °F 91% 30.05 in 10.0 mi ENE 5.8 mph - 0.01 in   Scattered Clouds
5:45 AM 69.8 °F - 66.2 °F 88% 30.05 in 10.0 mi ENE 4.6 mph - N/A   Scattered Clouds
6:50 AM 69.8 °F - 69.8 °F 100% 30.08 in 7.0 mi NE 4.6 mph - N/A   Scattered Clouds
7:50 AM 71.6 °F - 69.8 °F 94% 30.10 in 10.0 mi ENE 6.9 mph - N/A   Scattered Clouds
8:48 AM 73.4 °F - 64.4 °F 73% 30.12 in 10.0 mi ENE 11.5 mph - N/A   Mostly Cloudy
9:48 AM 77.0 °F - 60.8 °F 57% 30.14 in 10.0 mi NNE 15.0 mph 19.6 mph N/A   Scattered Clouds
10:50 AM 77.0 °F - 62.6 °F 61% 30.15 in 10.0 mi NE 9.2 mph - N/A   Scattered Clouds
11:50 AM 77.0 °F - 60.8 °F 57% 30.16 in 10.0 mi ENE 9.2 mph - N/A   Scattered Clouds
12:50 PM 77.0 °F - 59.0 °F 54% 30.16 in 10.0 mi NNE 6.9 mph - N/A   Mostly Cloudy
1:50 PM 78.8 °F - 59.0 °F 51% 30.14 in 10.0 mi NNE 10.4 mph - N/A   Mostly Cloudy
2:50 PM 80.6 °F 81.5 °F 60.8 °F 51% 30.13 in 10.0 mi NE 11.5 mph - N/A   Mostly Cloudy
3:50 PM 78.8 °F - 57.2 °F 47% 30.11 in 10.0 mi NE 5.8 mph - N/A   Mostly Cloudy
4:50 PM 78.8 °F - 57.2 °F 47% 30.11 in 10.0 mi NNE 5.8 mph - N/A   Scattered Clouds
5:56 PM 78.8 °F - 57.2 °F 47% 30.11 in 10.0 mi East 3.5 mph - N/A   Scattered Clouds
6:51 PM 75.2 °F - 57.2 °F 53% 30.12 in 10.0 mi East 6.9 mph - N/A   Scattered Clouds
7:46 PM 69.8 °F - 57.2 °F 64% 30.14 in 10.0 mi ESE 3.5 mph - N/A   Partly Cloudy
8:50 PM 66.2 °F - 55.4 °F 68% 30.15 in 10.0 mi ESE 4.6 mph - N/A   Clear
9:50 PM 66.2 °F - 55.4 °F 68% 30.16 in 10.0 mi East 3.5 mph - N/A   Clear
10:19 PM 64.9 °F - 54.7 °F 69% 30.16 in 10.0 mi Calm Calm - N/A   Clear
10:39 PM 64.4 °F - 54.7 °F 71% 30.16 in 10.0 mi Calm Calm - N/A   Clear
10:59 PM 64.0 °F - 54.9 °F 72% 30.16 in 10.0 mi Calm Calm - N/A   Clear
11:19 PM 61.7 °F - 54.9 °F 78% 30.16 in 10.0 mi Calm Calm - N/A   Clear
11:39 PM 61.2 °F - 55.2 °F 81% 30.16 in 10.0 mi Calm Calm - N/A   Clear
11:59 PM 60.8 °F - 55.4 °F 82% 30.16 in 10.0 mi Calm Calm - N/A   Clear